Weather History for Eagle, AK

Change the Weather History Date:

Sunday, October 7, 2012

  Actual Average (PABN) Record (PABN)
Temperature  
Mean Temperature 38 °F -  
Max Temperature 46 °F 32 °F 51 °F (2002)
Min Temperature 30 °F 20 °F 19 °F (1998)
Degree Days  
Heating Degree Days 27    
Moisture  
Dew Point 34 °F    
Average Humidity 93    
Maximum Humidity 100    
Minimum Humidity 76    
Precipitation  
Precipitation 0.00 in - - ()
Sea Level Pressure  
Sea Level Pressure 30.25 in    
Wind  
Wind Speed 1 mph (ESE)    
Max Wind Speed 9 mph    
Max Gust Speed -    
Visibility 7 miles    
Events Fog , Rain    
Averages and records for this station are not official NWS values.
T = Trace of Precipitation, MM = Missing Value Source: NWS Daily Summary

Daily Weather History Graph

Daily Weather History Graph

Search for Another Location

Airport:

Trip Planner

Search our weather history database for the weather conditions in past years. The results will help you decide how hot, cold, wet, or windy it might be!

Date:

Astronomy

Oct. 07, 2012 Rise Set
Actual Time 7:54 AM AKDT 6:28 PM AKDT
Civil Twilight 7:05 AM AKDT 7:17 PM AKDT
Nautical Twilight 6:08 AM AKDT 8:13 PM AKDT
Astronomical Twilight 5:08 AM AKDT 9:13 PM AKDT
Moon 10:13 PM AKDT (10/7) 4:16 PM AKDT (10/7)
Length of Visible Light 12h 12m
Length of Day
10h 34m
Waning Gibbous, 55% of the Moon is Illuminated
Oct 7
Waning Gibbous
Oct 7
Last Quarter
Oct 15
New
Oct 21
First Quarter
Oct 29
Full

Hourly Weather History & Observations

Time (AKDT) Temp. Windchill Dew Point Humidity Pressure Visibility Wind Dir Wind Speed Gust Speed Precip Events Conditions
12:05 AM 32.0 °F - 32.0 °F 100% 30.23 in 1.0 mi Calm Calm - N/A   Mist
12:29 AM 32.0 °F - 32.0 °F 100% 30.25 in 2.0 mi Calm Calm - N/A   Partly Cloudy
12:37 AM 33.8 °F - 32.0 °F 93% 30.25 in 9.0 mi Calm Calm - N/A   Scattered Clouds
12:53 AM 33.1 °F - 32.0 °F 96% 30.28 in 10.0 mi Calm Calm - N/A   Mostly Cloudy
1:03 AM 33.8 °F - 32.0 °F 93% 30.25 in 10.0 mi Calm Calm - N/A   Overcast
1:53 AM 33.1 °F - 32.0 °F 96% 30.29 in 10.0 mi Calm Calm - N/A   Overcast
2:53 AM 32.0 °F - 30.9 °F 96% 30.30 in 10.0 mi Calm Calm - N/A   Partly Cloudy
3:29 AM 32.0 °F - 30.2 °F 93% 30.27 in 10.0 mi Calm Calm - N/A   Overcast
3:45 AM 30.2 °F - 30.2 °F 100% 30.28 in 10.0 mi Calm Calm - N/A   Overcast
3:53 AM 32.0 °F - 30.9 °F 96% 30.30 in 10.0 mi Calm Calm - N/A   Overcast
4:40 AM 30.2 °F - 30.2 °F 100% 30.28 in 10.0 mi Calm Calm - N/A   Mostly Cloudy
4:53 AM 30.9 °F - 30.0 °F 96% 30.30 in 10.0 mi Calm Calm - N/A   Overcast
5:19 AM 30.2 °F - 30.2 °F 100% 30.27 in 10.0 mi Calm Calm - N/A   Mostly Cloudy
5:43 AM 32.0 °F - 30.2 °F 93% 30.27 in 1.5 mi Calm Calm - N/A   Mostly Cloudy
5:51 AM 32.0 °F - 32.0 °F 100% 30.27 in 0.5 mi Calm Calm - N/A Fog Fog
5:53 AM 32.0 °F - 32.0 °F 100% 30.30 in 0.5 mi Calm Calm - N/A Fog Fog
6:14 AM 32.0 °F - 30.2 °F 93% 30.26 in 1.0 mi Calm Calm - N/A   Mist
6:22 AM 32.0 °F - 30.2 °F 93% 30.26 in 3.0 mi Calm Calm - N/A   Mostly Cloudy
6:36 AM 30.2 °F - 30.2 °F 100% 30.26 in 10.0 mi Calm Calm - N/A   Mostly Cloudy
6:49 AM 30.2 °F - 30.2 °F 100% 30.25 in 10.0 mi Calm Calm - N/A   Overcast
6:53 AM 32.0 °F - 30.9 °F 96% 30.29 in 9.0 mi Calm Calm - N/A   Overcast
7:01 AM 32.0 °F - 30.2 °F 93% 30.25 in 3.0 mi Calm Calm - N/A   Overcast
7:03 AM 32.0 °F - 30.2 °F 93% 30.26 in 1.8 mi Calm Calm - N/A   Overcast
7:13 AM 32.0 °F - 32.0 °F 100% 30.26 in 0.5 mi Calm Calm - N/A Fog Fog
7:53 AM 32.0 °F - 30.9 °F 96% 30.29 in 1.0 mi Calm Calm - N/A   Overcast
8:11 AM 32.0 °F - 30.2 °F 93% 30.26 in 0.5 mi Calm Calm - N/A Fog Fog
8:20 AM 32.0 °F - 32.0 °F 100% 30.26 in 0.2 mi Calm Calm - N/A Fog Fog
8:53 AM 33.1 °F - 32.0 °F 96% 30.30 in 0.2 mi Calm Calm - N/A Fog Fog
9:05 AM 33.8 °F - 32.0 °F 93% 30.27 in 1.0 mi Calm Calm - N/A   Overcast
9:12 AM 33.8 °F - 33.8 °F 100% 30.26 in 0.2 mi Calm Calm - N/A Fog Fog
9:53 AM 35.1 °F - 34.0 °F 96% 30.30 in 0.2 mi Calm Calm - N/A Fog Fog
10:46 AM 37.4 °F - 35.6 °F 93% 30.26 in 0.8 mi Calm Calm - N/A   Mist
10:53 AM 37.0 °F - 36.0 °F 96% 30.29 in 0.8 mi Calm Calm - N/A   Mist
11:03 AM 37.4 °F - 35.6 °F 93% 30.26 in 2.5 mi Calm Calm - N/A   Overcast
11:10 AM 39.2 °F - 37.4 °F 93% 30.26 in 10.0 mi Calm Calm - N/A   Overcast
11:36 AM 39.2 °F 34.2 °F 39.2 °F 100% 30.25 in 10.0 mi Variable 6.9 mph - N/A   Overcast
11:53 AM 41.0 °F 36.4 °F 39.0 °F 93% 30.28 in 10.0 mi SE 6.9 mph - N/A   Overcast
12:10 PM 42.8 °F 38.6 °F 39.2 °F 87% 30.24 in 10.0 mi SE 6.9 mph - N/A   Overcast
12:17 PM 42.8 °F 38.0 °F 39.2 °F 87% 30.24 in 10.0 mi ESE 8.1 mph - N/A   Overcast
12:50 PM 42.8 °F 37.5 °F 37.4 °F 81% 30.24 in 10.0 mi ESE 9.2 mph - N/A   Overcast
12:53 PM 42.1 °F 38.4 °F 37.9 °F 85% 30.27 in 10.0 mi ESE 5.8 mph - N/A   Overcast
1:15 PM 42.8 °F 38.0 °F 37.4 °F 81% 30.24 in 10.0 mi ESE 8.1 mph - N/A   Mostly Cloudy
1:53 PM 44.1 °F - 39.0 °F 82% 30.26 in 10.0 mi Calm Calm - N/A   Overcast
2:53 PM 46.0 °F 43.9 °F 39.0 °F 76% 30.25 in 10.0 mi East 4.6 mph - N/A   Overcast
3:53 PM 45.0 °F - 39.0 °F 80% 30.23 in 10.0 mi Calm Calm - N/A   Overcast
4:53 PM 45.0 °F 42.6 °F 39.0 °F 80% 30.22 in 10.0 mi Variable 4.6 mph - N/A   Overcast
5:53 PM 43.0 °F - 39.0 °F 86% 30.22 in 10.0 mi Calm Calm - N/A   Overcast
6:53 PM 42.1 °F - 39.0 °F 89% 30.21 in 10.0 mi Calm Calm - N/A   Overcast
7:53 PM 39.9 °F - 37.9 °F 93% 30.22 in 10.0 mi Calm Calm - N/A   Overcast
8:53 PM 39.0 °F - 37.0 °F 93% 30.21 in 10.0 mi Calm Calm - N/A   Overcast
9:53 PM 37.9 °F - 37.0 °F 97% 30.20 in 10.0 mi Calm Calm - N/A   Overcast
10:53 PM 37.0 °F - 36.0 °F 96% 30.19 in 10.0 mi Calm Calm - 0.00 in   Overcast
11:00 PM 37.4 °F - 35.6 °F 93% 30.16 in 10.0 mi Calm Calm - N/A   Overcast
11:11 PM 37.4 °F - 35.6 °F 93% 30.16 in 10.0 mi Calm Calm - N/A   Overcast
11:53 PM 37.0 °F - 36.0 °F 96% 30.19 in 10.0 mi Calm Calm - 0.00 in Rain Light Rain